This is the latest recevied weather packets stored in our database for station/object N4TLC. If no packets are shown the sender has not sent any weather packets the latest 10 day(s).
| Time | Temp. | Humidity | Pressure | Rain* | Wind** | Luminosity | Snow |
|---|---|---|---|---|---|---|---|
| 1777564955 | 18.89° C | 53% | 1012.8 hPa | 0 mm | - | 942 W/m² | - |
| 1777564650 | 18.89° C | 53% | 1012.9 hPa | 0 mm | - | 933 W/m² | - |
| 1777564345 | 18.89° C | 52% | 1013.1 hPa | 0 mm | - | 921 W/m² | - |
| 1777564042 | 18.89° C | 53% | 1013 hPa | 0 mm | - | 910 W/m² | - |
| 1777563738 | 18.89° C | 53% | 1013.1 hPa | 0 mm | - | 910 W/m² | - |
| 1777563435 | 18.33° C | 53% | 1013.1 hPa | 0 mm | - | 886 W/m² | - |
| 1777563134 | 18.33° C | 57% | 1013.1 hPa | 0 mm | - | 737 W/m² | - |
| 1777562830 | 17.78° C | 58% | 1013.1 hPa | 0 mm | - | 749 W/m² | - |
| 1777562528 | 17.78° C | 56% | 1013.3 hPa | 0 mm | - | 309 W/m² | - |
| 1777562225 | 17.78° C | 59% | 1013.3 hPa | 0 mm | - | 330 W/m² | - |
| 1777561923 | 17.78° C | 59% | 1013.1 hPa | 0 mm | - | 273 W/m² | - |
| 1777561620 | 17.78° C | 61% | 1013.1 hPa | 0 mm | - | 346 W/m² | - |
| 1777561316 | 17.78° C | 60% | 1013.3 hPa | 0 mm | - | 300 W/m² | - |
| 1777561016 | 17.22° C | 65% | 1013.2 hPa | 0 mm | - | 322 W/m² | - |
| 1777560711 | 17.22° C | 66% | 1013.2 hPa | 0 mm | - | 271 W/m² | - |
| 1777560409 | 17.22° C | 66% | 1013.3 hPa | 0 mm | - | 293 W/m² | - |
| 1777560107 | 16.67° C | 68% | 1013.3 hPa | 0 mm | - | 220 W/m² | - |
| 1777559803 | 16.11° C | 73% | 1013.4 hPa | 0 mm | - | 299 W/m² | - |
| 1777559500 | 15.56° C | 75% | 1013.4 hPa | 0 mm | - | 257 W/m² | - |
| 1777559197 | 15.56° C | 75% | 1013.3 hPa | 0 mm | - | 161 W/m² | - |
| 1777558897 | 15.56° C | 76% | 1013.1 hPa | 0 mm | - | 149 W/m² | - |
| 1777558593 | 15° C | 78% | 1013.2 hPa | 0 mm | - | 153 W/m² | - |
| 1777558288 | 15° C | 78% | 1013.1 hPa | 0 mm | - | 163 W/m² | - |
| 1777557985 | 15° C | 78% | 1013.2 hPa | 0 mm | - | 81 W/m² | - |
| 1777557682 | 15° C | 80% | 1013 hPa | 0 mm | - | 84 W/m² | - |
* Rain latest hour (hover to see other rain measurements)
** Current wind speed in m/s (hover to see current wind gust speed)